KAL818 RKSI-RJFF

Flight info

Callsign KAL818
Flight time N/A
Altitude 37000
Route OSPOT2E OSPOT Y782 TGU Y781 BESNA Y209 SARUP
Aircraft A320/M-SDE3FGHIRWY/LB1

Departure

Time 2026-05-07 14:33
Airport Incheon International Airport (RKSI)

Arrival

Time N/A
Airport Fukuoka Airport (RJFF)
Time Latitude Longitude Altitude Speed Heading
2026-05-07 14:10 37.45120 126.45507 29 ft 0 kts 187°
2026-05-07 14:22 37.45126 126.45508 29 ft 2 kts 188°
2026-05-07 14:22 37.45141 126.45511 29 ft 2 kts 188°
2026-05-07 14:23 37.45155 126.45513 29 ft 2 kts 188°
2026-05-07 14:23 37.45171 126.45516 29 ft 2 kts 188°
2026-05-07 14:23 37.45186 126.45519 29 ft 2 kts 188°
2026-05-07 14:23 37.45201 126.45522 29 ft 2 kts 188°
2026-05-07 14:24 37.45211 126.45524 29 ft 2 kts 188°
2026-05-07 14:24 37.45224 126.45527 29 ft 0 kts 190°
2026-05-07 14:24 37.45229 126.45525 29 ft 0 kts 126°
2026-05-07 14:24 37.45231 126.45519 29 ft 1 kts 92°
2026-05-07 14:25 37.45231 126.45515 29 ft 0 kts 97°
2026-05-07 14:27 37.45230 126.45528 29 ft 4 kts 98°
2026-05-07 14:27 37.45221 126.45589 29 ft 8 kts 103°
2026-05-07 14:27 37.45221 126.45679 29 ft 11 kts 69°
2026-05-07 14:27 37.45272 126.45777 29 ft 13 kts 54°
2026-05-07 14:28 37.45332 126.45886 29 ft 15 kts 54°
2026-05-07 14:28 37.45363 126.45943 29 ft 0 kts 54°
2026-05-07 14:30 37.45374 126.45961 29 ft 6 kts 54°
2026-05-07 14:30 37.45419 126.46017 29 ft 11 kts 34°
2026-05-07 14:30 37.45486 126.46024 29 ft 8 kts 333°
2026-05-07 14:31 37.45499 126.46014 29 ft 0 kts 327°
2026-05-07 14:32 37.45565 126.45956 29 ft 44 kts 324°
2026-05-07 14:32 37.46077 126.45500 29 ft 128 kts 324°
2026-05-07 14:32 37.47008 126.44682 243 ft 176 kts 323°
2026-05-07 14:33 37.48058 126.43807 1147 ft 179 kts 325°
2026-05-07 14:33 37.49085 126.42967 2300 ft 172 kts 324°
2026-05-07 14:33 37.50160 126.42076 3001 ft 186 kts 324°
2026-05-07 14:33 37.51328 126.41099 3637 ft 204 kts 324°
2026-05-07 14:34 37.52603 126.40028 4199 ft 227 kts 324°
2026-05-07 14:34 37.54018 126.38841 4915 ft 238 kts 324°
2026-05-07 14:34 37.55489 126.37698 5344 ft 240 kts 330°
2026-05-07 14:34 37.57094 126.36868 5432 ft 242 kts 340°
2026-05-07 14:35 37.58826 126.36237 5922 ft 253 kts 342°
2026-05-07 14:35 37.60539 126.35651 7079 ft 250 kts 342°
2026-05-07 14:35 37.62311 126.35387 8136 ft 256 kts
2026-05-07 14:35 37.64035 126.36231 9070 ft 269 kts 34°
2026-05-07 14:36 37.65268 126.38121 9721 ft 290 kts 63°
2026-05-07 14:36 37.66021 126.40685 10376 ft 306 kts 70°
2026-05-07 14:36 37.66625 126.43413 10919 ft 326 kts 81°
2026-05-07 14:36 37.66569 126.46394 11671 ft 335 kts 103°
2026-05-07 14:37 37.65831 126.49303 12604 ft 337 kts 111°
2026-05-07 14:37 37.63761 126.54844 14179 ft 347 kts 128°
2026-05-07 14:37 37.62082 126.57204 14976 ft 349 kts 140°
2026-05-07 14:38 37.60217 126.59328 15762 ft 354 kts 142°
2026-05-07 14:38 37.58299 126.61443 16520 ft 359 kts 143°
2026-05-07 14:38 37.56369 126.63586 17257 ft 365 kts 143°
2026-05-07 14:38 37.54436 126.65760 17970 ft 370 kts 143°
2026-05-07 14:39 37.52509 126.67960 18653 ft 375 kts 143°
2026-05-07 14:39 37.50507 126.70255 19334 ft 380 kts 143°
2026-05-07 14:39 37.48513 126.72535 19986 ft 385 kts 143°
2026-05-07 14:39 37.46476 126.74858 20636 ft 390 kts 144°
2026-05-07 14:40 37.44441 126.77176 21324 ft 393 kts 144°
2026-05-07 14:40 37.42356 126.79546 22014 ft 396 kts 145°
2026-05-07 14:40 37.40239 126.81767 22630 ft 397 kts 149°
2026-05-07 14:40 37.38013 126.83901 23238 ft 401 kts 150°
2026-05-07 14:41 37.35770 126.86015 23826 ft 405 kts 150°
2026-05-07 14:41 37.33446 126.88200 24420 ft 410 kts 151°
2026-05-07 14:41 37.31094 126.90418 24996 ft 414 kts 151°
2026-05-07 14:41 37.28734 126.92653 25555 ft 418 kts 151°
2026-05-07 14:42 37.26297 126.94961 26110 ft 423 kts 151°
2026-05-07 14:42 37.23872 126.97255 26640 ft 427 kts 151°
2026-05-07 14:42 37.21427 126.99568 27275 ft 427 kts 152°
2026-05-07 14:42 37.19020 127.01846 27885 ft 428 kts 152°
2026-05-07 14:43 37.16556 127.04173 28402 ft 431 kts 152°
2026-05-07 14:43 37.14108 127.06478 28870 ft 434 kts 152°
2026-05-07 14:43 37.11659 127.08781 29291 ft 438 kts 152°
2026-05-07 14:43 37.09164 127.11123 29702 ft 441 kts 152°
2026-05-07 14:44 37.06647 127.13487 30151 ft 443 kts 152°
2026-05-07 14:44 37.04155 127.15826 30570 ft 445 kts 151°
2026-05-07 14:44 37.01605 127.18220 30978 ft 447 kts 151°
2026-05-07 14:44 36.99065 127.20604 31393 ft 448 kts 151°
2026-05-07 14:45 36.96506 127.23003 31792 ft 450 kts 151°
2026-05-07 14:45 36.93935 127.25410 32165 ft 452 kts 151°
2026-05-07 14:45 36.91383 127.27804 32602 ft 451 kts 151°
2026-05-07 14:45 36.89676 127.29404 32907 ft 450 kts 151°
2026-05-07 14:46 36.86246 127.32602 33497 ft 450 kts 151°